Location: Gleizolles
(44.4833°N, 6.7667°E)
Time: 20:56:00
(UTC+00:00)

Explorer 7 - Pass Details

Date: 19 June 2024
Orbit: 465 x 619 km, 50.3° (Epoch: 19 July)

Event Time Altitude Azimuth Distance (km) Brightness Sun altitude
Rises 13:55:53 0° 278° (W) 2,585 10.7 54.3°
Reaches altitude 10° 13:58:15 10° 288° (WNW) 1,678 9.9 54.0°
Maximum altitude 14:01:43 33° 355° (N) 822 8.0 53.4°
Drops below altitude 10° 14:05:05 10° 61° (ENE) 1,631 9.0 52.8°
Sets 14:07:21 0° 71° (ENE) 2,500 9.8 52.5°
